GEFSSE_con_prob3kmehi_060.txt.gz
EHI
0 4 9 8 3 2 4 5 3 1 3 6 4 1 0 0 0 0 0 0 0 0 0 0 0 0 0 0 0 0 0 0 0 0 0 0 0 0 0 0 0 0 0
0 4 11 12 9 7 6 6 3 1 1 3 3 1 0 0 0 0 0 0 0 0 0 0 0 0 0 0 0 0 0 0 0 0 0 0 0 0 0 0 0 0 0
0 3 11 19 19 15 12 9 5 2 1 1 1 0 0 0 0 0 0 0 0 0 0 0 0 0 0 0 0 0 0 0 0 0 0 0 0 0 0 0 0 0 0
0 1 12 27 31 26 21 15 10 6 4 2 0 0 0 0 0 0 0 0 0 0 0 0 0 0 0 0 0 0 0 0 0 0 0 0 0 0 0 0 0 0 0
0 1 16 40 48 40 32 25 18 12 8 4 1 0 0 0 0 0 0 0 0 0 0 0 0 0 0 0 0 0 0 0 0 0 0 0 0 0 0 0 0 0 0
0 1 20 51 62 54 45 36 26 18 12 6 2 0 0 0 0 0 0 0 0 0 0 0 0 0 0 0 0 0 0 0 0 0 0 0 0 0 0 0 0 0 0
0 0 21 54 70 63 57 47 36 26 17 8 3 1 0 0 0 0 0 0 0 0 0 0 0 0 0 0 0 0 0 0 0 0 0 0 0 0 0 0 0 0 1
0 1 18 48 65 67 63 55 45 34 22 12 5 1 0 0 0 0 0 0 0 0 0 0 0 0 0 0 0 0 0 0 0 0 0 0 0 0 0 0 0 1 2
2 4 15 30 45 55 59 57 52 41 28 17 9 3 0 0 0 0 0 0 0 0 0 0 0 0 0 0 0 0 0 0 0 0 0 0 0 0 0 0 0 1 2
4 7 13 20 27 35 44 51 53 47 35 23 14 7 3 1 0 0 0 0 0 0 0 0 0 0 0 0 0 0 0 0 0 0 0 0 0 0 0 0 0 0 1
4 8 14 19 22 26 33 41 48 47 39 29 20 12 7 3 1 0 0 0 0 0 0 0 0 0 0 0 0 0 0 0 0 0 0 0 0 0 0 0 0 0 1
3 8 14 19 23 27 30 32 39 44 41 36 27 19 13 7 3 1 1 0 0 0 0 0 0 0 0 0 0 0 0 0 0 0 0 0 0 0 0 0 0 1 2
2 5 12 20 24 26 24 23 28 35 38 36 30 24 18 13 8 5 3 1 0 0 0 0 0 0 1 1 1 0 0 0 0 0 0 0 0 0 1 0 0 1 2
1 3 9 18 22 22 19 16 19 24 27 27 24 22 22 19 15 10 6 3 1 0 0 0 0 0 1 2 2 1 0 0 0 0 0 0 0 0 0 0 0 1 2
1 2 6 13 19 21 18 13 13 16 17 16 15 17 20 20 15 10 7 4 2 1 1 1 2 1 1 2 3 2 1 1 0 0 0 0 0 0 1 1 1 2 3
3 2 3 8 15 20 18 12 10 10 10 9 9 11 15 16 12 8 6 5 5 5 5 6 6 5 4 3 2 1 0 1 1 0 0 0 0 1 2 3 4 4 5
6 4 3 6 12 17 17 13 9 8 7 6 5 6 8 10 10 8 8 9 11 14 15 14 11 9 7 5 3 1 0 0 1 0 0 0 0 1 3 5 7 6 6
9 9 11 13 14 15 16 15 14 14 12 11 10 9 9 10 13 16 16 19 24 28 28 25 18 14 11 9 6 3 1 1 1 0 0 0 0 0 2 6 7 6 5
12 14 20 23 21 19 19 19 20 23 26 26 24 20 18 18 22 26 27 30 38 42 40 34 28 23 17 12 8 4 2 1 0 0 0 0 0 0 1 3 4 3 2
16 17 21 25 25 22 21 21 23 29 35 37 34 28 24 25 27 29 28 31 40 45 42 36 31 25 19 13 8 5 4 2 1 0 0 0 0 0 0 1 1 1 0
13 12 15 18 18 17 17 18 20 24 28 29 27 23 19 19 20 19 18 22 30 35 34 30 25 21 17 13 9 7 5 3 2 1 0 0 1 1 1 1 1 0 0
6 5 5 7 8 8 8 9 11 12 12 13 13 12 10 8 7 6 8 12 17 21 21 20 18 17 15 14 12 9 6 3 2 1 0 0 1 2 2 2 1 0 0
1 1 1 1 2 2 2 2 2 3 3 3 4 4 3 1 1 1 2 4 8 11 11 12 14 13 11 12 14 12 7 4 2 0 0 0 1 2 2 1 0 0 0
0 0 0 0 0 0 1 1 0 0 1 1 1 1 1 0 0 0 0 1 3 4 4 7 9 8 6 7 10 11 9 6 3 1 0 0 0 1 1 0 0 0 0
0 0 0 0 0 1 2 1 0 0 0 0 0 0 0 0 0 0 0 0 0 1 1 2 4 4 3 2 4 9 10 7 4 1 0 0 0 0 0 0 0 0 0
0 0 1 1 1 1 2 1 0 0 0 0 0 0 0 0 0 0 0 0 0 0 0 1 1 2 2 1 2 7 10 8 4 1 0 0 0 0 0 0 0 0 0

GEFSSE_con_prob3kmehi_066.txt.gz
EHI
0 2 4 4 3 4 4 4 5 7 7 3 1 0 0 0 0 0 1 0 0 0 0 0 0 0 0 0 0 0 0 0 0 0 0 0 0 0 0 0 0 0 0
1 3 5 5 5 5 6 7 9 12 12 9 4 1 0 0 0 0 1 0 0 0 0 0 0 0 0 0 0 0 0 0 0 0 0 0 0 0 0 0 0 0 0
1 3 4 6 7 8 9 12 16 19 20 16 10 5 2 1 0 0 0 0 0 0 0 0 0 0 0 0 0 0 0 0 0 0 0 0 0 0 0 0 0 0 0
1 1 3 6 8 9 11 16 21 26 26 22 15 9 5 2 1 0 0 0 0 0 0 0 0 0 0 0 0 0 0 0 0 0 0 0 0 0 0 0 0 0 0
0 2 5 7 7 9 12 16 21 28 31 27 19 13 9 5 2 0 0 0 0 0 0 0 0 0 0 0 0 0 0 0 0 0 0 0 0 0 0 0 0 0 0
0 3 8 8 7 8 10 13 20 28 34 33 26 19 14 10 5 1 1 0 0 0 0 0 0 0 0 0 0 0 0 0 0 0 0 0 0 1 0 0 0 0 0
0 2 8 10 6 5 7 12 21 32 39 39 33 26 20 15 9 4 2 1 0 0 0 0 0 0 0 0 0 0 0 0 0 0 0 0 0 0 0 0 0 0 0
0 2 7 9 5 3 5 9 20 34 41 41 36 30 24 18 12 7 4 2 1 0 0 0 0 0 0 0 0 0 0 0 0 0 0 1 2 1 0 0 0 0 0
0 2 5 6 3 2 4 8 16 27 34 34 30 25 21 16 11 8 6 4 3 1 0 0 0 0 0 0 0 0 0 0 0 0 0 6 10 6 0 0 0 0 0
0 1 3 4 2 1 3 8 13 18 23 24 22 19 15 9 7 7 8 9 7 3 1 0 0 0 1 1 2 2 1 0 0 0 0 12 22 12 0 0 0 0 0
0 1 2 3 2 1 2 5 9 11 14 15 14 14 10 5 4 5 12 19 15 4 1 0 0 0 1 2 7 8 4 0 0 0 3 19 28 14 0 0 0 0 0
0 0 1 3 3 1 1 2 4 6 8 7 8 10 9 5 4 4 12 22 16 4 1 0 0 0 1 2 8 12 6 1 0 0 11 30 30 12 1 0 0 0 0
0 0 1 2 3 3 3 3 4 5 6 5 6 10 11 9 7 6 11 14 10 3 1 1 1 1 0 2 5 6 4 1 1 1 15 34 29 10 1 0 0 0 0
0 0 1 3 5 7 8 7 7 8 7 6 8 10 12 13 10 9 12 12 7 4 4 3 3 2 1 1 1 1 2 2 1 3 15 27 23 9 2 1 0 1 1
0 0 1 4 10 16 17 13 10 9 8 7 7 9 12 14 13 12 14 13 9 7 8 8 7 6 4 2 0 0 1 2 2 5 12 19 16 8 3 1 0 1 1
1 1 3 6 14 22 24 18 11 8 6 4 5 8 12 16 19 17 15 15 14 12 14 15 15 14 11 7 4 3 3 3 4 5 9 13 12 8 4 2 1 1 1
6 6 6 9 16 25 28 23 14 7 5 6 7 10 13 16 22 24 22 22 23 22 24 28 29 27 24 19 16 13 13 12 9 6 6 7 10 9 6 4 4 2 1
14 14 12 12 17 25 31 29 20 12 11 12 14 16 15 15 21 28 28 27 29 30 33 37 39 39 38 35 33 29 27 25 18 9 5 5 7 10 9 7 7 6 4
24 22 18 16 17 22 27 29 23 17 15 13 16 20 20 17 20 25 26 25 26 30 33 36 39 42 46 46 42 37 33 31 24 13 6 5 7 9 9 9 10 8 5
30 26 20 16 14 16 20 22 19 15 12 10 13 18 19 17 17 18 19 19 21 24 27 30 32 36 44 47 42 35 31 28 23 15 9 7 8 8 7 9 11 11 9
29 25 19 14 11 12 14 14 13 11 8 6 7 9 9 9 10 10 11 12 14 17 21 24 26 28 36 42 41 34 26 22 20 15 10 9 9 8 7 9 14 17 18
25 22 18 13 10 9 8 8 8 7 5 3 2 2 2 2 3 4 5 6 8 11 12 15 20 24 28 34 40 34 22 19 19 16 13 11 9 9 9 9 14 21 22
18 17 14 12 10 8 6 4 4 5 3 1 1 1 1 0 0 1 1 1 3 5 5 6 12 17 21 25 31 31 24 21 22 21 17 12 10 9 8 7 10 14 17
12 10 10 10 12 14 13 10 8 6 3 1 2 3 3 1 0 0 0 0 1 1 1 1 4 9 13 15 20 23 23 24 23 22 19 14 11 9 7 7 6 8 11
8 7 9 13 20 26 27 26 23 15 7 5 6 7 6 4 2 0 0 0 0 0 0 0 1 4 7 9 13 15 18 19 19 18 17 15 14 11 9 9 8 8 9
7 7 10 17 27 36 38 39 37 26 14 10 10 8 7 6 3 1 1 1 1 0 0 0 0 1 4 7 11 12 14 15 15 14 12 14 17 15 13 12 11 10 11

GEFSSE_con_prob3kmehi_072.txt.gz
EHI
27 34 44 31 8 0 0 0 0 0 0 0 0 0 0 0 0 0 0 0 0 0 0 0 0 0 0 0 0 0 0 0 0 0 0 0 0 0 0 0 0 0 0
30 34 43 34 11 1 0 0 0 0 0 0 0 0 0 0 0 0 0 0 0 0 0 0 0 0 0 0 0 0 0 0 0 0 0 0 0 0 0 0 0 0 0
27 25 31 31 14 1 0 0 0 0 0 0 0 0 0 0 0 0 0 0 0 0 0 0 0 0 0 0 0 0 0 0 0 0 0 0 0 0 0 0 0 0 0
14 11 16 22 13 2 0 0 0 0 0 0 0 0 0 0 0 0 0 0 0 0 0 0 0 0 0 0 0 0 0 0 0 0 0 0 0 0 0 0 0 0 0
3 4 11 16 11 3 0 0 0 0 0 0 0 0 0 0 0 0 0 0 0 0 0 0 0 0 0 0 0 0 0 0 0 0 0 0 2 2 1 0 0 0 0
5 7 13 16 11 4 1 1 0 0 0 0 0 0 0 0 0 0 0 0 0 0 0 0 0 0 0 0 0 0 0 0 0 0 0 2 9 13 9 3 1 0 0
21 16 16 18 12 5 4 3 2 0 0 0 0 0 0 0 0 0 0 0 0 0 0 0 0 0 0 0 0 0 0 0 0 0 1 9 26 37 28 12 4 1 0
40 28 17 14 10 5 5 5 4 2 1 1 1 1 1 1 1 1 1 2 2 2 1 0 0 0 1 1 1 1 0 0 0 0 2 18 49 66 54 30 11 4 2
49 36 17 7 6 4 4 4 4 4 4 3 3 2 2 2 3 4 7 10 11 9 6 3 2 1 3 4 5 4 3 1 0 0 1 22 63 86 77 51 23 7 4
46 36 18 8 6 4 4 4 5 6 6 6 5 4 4 3 5 12 24 29 28 25 22 18 13 8 7 10 15 15 11 5 1 0 1 24 67 93 89 65 33 12 6
31 27 21 18 13 6 10 16 14 10 9 8 8 10 11 7 6 19 40 54 55 52 49 46 37 24 14 13 23 29 23 11 3 0 5 32 72 95 92 72 41 18 8
14 14 19 27 23 11 20 34 28 19 23 23 20 24 28 22 13 18 43 70 78 75 71 66 56 39 21 13 23 36 32 16 4 2 14 47 81 94 90 74 49 25 14
7 7 13 27 30 21 29 44 38 34 45 49 43 47 51 45 30 24 43 72 83 80 74 66 57 43 26 17 19 28 30 19 8 5 23 58 84 90 86 74 55 33 20
14 13 16 32 40 33 36 46 45 45 56 66 69 70 72 68 54 46 55 71 79 78 72 64 58 45 31 22 16 15 19 19 14 12 29 58 78 83 80 68 52 34 22
34 32 38 55 61 52 49 53 50 50 57 69 79 83 84 83 77 70 71 76 77 76 73 69 63 51 37 27 19 12 12 17 22 24 37 56 69 74 71 59 44 31 23
58 60 68 80 84 76 68 63 57 56 65 74 82 87 89 90 89 84 79 77 75 71 69 67 63 54 42 32 24 18 15 19 28 36 46 57 62 62 59 53 43 33 27
79 82 87 92 94 91 83 75 68 68 73 80 85 87 88 89 87 82 74 69 66 64 64 61 57 55 48 38 30 25 22 24 29 37 46 54 55 51 50 49 45 38 33
91 94 94 92 93 93 87 79 72 70 72 76 78 80 81 78 74 70 64 58 57 58 58 54 53 54 51 44 36 30 28 28 28 31 37 46 48 46 45 44 42 39 35
95 96 94 92 91 88 82 72 64 61 59 58 62 68 67 58 52 51 49 46 47 50 49 45 46 48 44 38 32 29 29 31 31 31 35 39 40 40 39 37 37 37 33
92 91 90 90 87 81 73 63 56 51 46 41 46 53 47 36 33 32 31 31 32 34 36 34 32 32 31 26 19 18 25 30 34 37 36 33 29 28 27 28 33 36 35
89 87 86 82 76 70 64 58 52 46 36 28 31 35 29 22 20 19 18 18 19 21 24 22 19 17 18 17 12 9 14 23 31 37 37 32 25 20 17 20 29 37 39
86 84 80 73 66 61 58 50 44 37 27 19 22 28 25 19 16 14 15 14 13 13 15 15 12 9 7 10 11 8 7 13 21 27 33 33 30 25 16 14 22 32 36
75 74 73 71 65 60 55 45 38 34 25 19 26 36 35 25 17 16 15 14 11 9 9 10 8 5 3 5 8 8 6 8 11 15 20 26 32 30 18 12 16 24 29
62 65 73 76 73 68 62 54 47 41 35 33 42 52 49 36 26 24 22 18 13 9 6 6 6 4 2 2 3 4 5 6 6 7 8 14 23 25 20 15 16 21 25
56 63 74 81 80 77 73 69 65 57 50 51 57 62 59 48 40 37 34 29 22 14 8 6 6 4 2 1 1 1 2 3 3 3 2 4 9 15 19 21 21 22 22
53 62 73 81 85 84 80 78 76 70 61 59 63 65 62 55 49 44 41 37 29 19 10 7 6 5 3 1 0 0 0 0 1 2 1 0 2 8 16 23 24 22 21

GEFSSE_con_prob3kmehi_078.txt.gz
EHI
6 18 33 36 27 15 6 1 0 0 0 0 0 0 0 0 0 0 0 0 0 0 0 0 0 0 0 0 0 0 0 0 0 0 0 1 1 1 0 0 0 0 0
12 23 39 45 36 21 9 3 1 0 0 0 0 0 0 0 0 0 0 0 0 0 0 0 0 0 0 0 0 0 0 0 0 0 0 0 0 0 0 0 0 0 0
30 35 45 53 48 31 15 7 3 1 0 0 0 0 0 0 0 0 0 0 0 0 0 0 0 0 0 0 0 0 0 0 0 0 0 0 0 0 0 0 0 0 0
43 42 48 58 57 42 25 14 8 4 1 0 0 0 0 0 0 0 0 0 0 0 0 0 0 0 0 0 0 0 0 0 0 0 0 0 0 0 0 1 0 0 0
39 40 52 67 66 52 37 24 14 7 2 0 0 0 0 0 0 0 0 0 0 0 0 0 0 0 0 0 0 0 0 0 0 0 0 0 0 0 1 1 1 0 0
27 34 55 74 73 60 47 34 22 11 3 0 0 0 0 0 0 0 0 0 0 0 0 0 0 0 0 0 0 0 0 0 0 0 0 0 0 1 3 3 3 2 1
23 29 52 75 77 65 54 43 28 14 5 1 0 0 0 0 0 0 0 0 0 0 0 0 0 0 0 0 0 0 0 0 0 0 0 0 0 4 9 10 8 6 4
22 26 41 63 71 66 57 45 29 17 9 4 1 1 1 0 0 0 0 0 0 0 1 1 0 0 0 0 0 0 0 0 0 0 0 0 1 7 17 19 15 12 9
14 19 29 39 47 50 45 35 25 16 11 6 3 2 2 1 0 0 0 0 0 1 2 2 2 1 1 1 0 0 0 0 0 0 0 0 1 8 21 28 26 20 17
6 10 17 20 22 22 21 19 16 11 7 5 3 3 3 2 1 0 0 1 1 3 5 5 5 5 4 3 2 1 0 0 0 0 0 0 0 6 21 36 41 35 28
5 7 10 12 9 6 6 7 7 5 4 3 3 3 3 2 1 0 0 1 2 4 7 10 11 10 7 5 4 2 1 0 0 0 0 0 0 5 21 44 57 52 45
11 8 7 8 7 5 4 4 4 4 3 3 4 4 4 3 2 2 2 2 3 5 9 13 16 15 13 10 7 4 2 2 1 1 0 0 0 4 21 46 64 66 62
20 13 8 7 7 6 6 6 7 6 5 4 6 7 8 7 6 5 4 3 4 6 11 16 19 21 20 15 10 6 4 4 4 2 1 0 0 5 19 42 62 69 70
34 21 9 7 7 7 7 9 11 11 10 11 13 14 14 14 12 9 6 4 5 8 15 20 20 20 18 15 11 7 5 5 4 2 2 2 2 6 17 36 52 60 62
47 32 18 15 16 15 16 19 21 21 22 24 25 25 25 23 19 13 8 5 6 10 15 18 15 12 11 9 7 5 5 4 3 3 3 4 4 7 16 30 41 46 48
54 48 40 39 41 40 40 42 42 38 37 39 40 39 38 35 28 20 12 9 8 9 11 11 8 6 5 4 2 2 2 2 3 4 5 5 6 8 15 26 35 38 38
59 60 62 64 69 69 67 67 65 57 51 51 50 48 46 42 35 25 15 10 9 7 7 6 4 3 2 1 0 0 0 0 2 4 5 5 6 9 14 21 29 33 34
59 61 66 73 78 80 77 75 70 62 54 50 47 44 42 38 31 22 14 9 6 4 3 3 2 1 0 0 0 0 0 0 1 3 5 6 6 8 11 14 18 23 26
53 56 61 67 71 72 68 63 56 48 42 38 34 31 27 24 21 15 10 6 3 2 1 1 0 0 0 0 0 0 0 0 0 2 4 4 4 6 7 7 7 9 12
48 51 53 55 57 55 50 45 38 30 25 21 19 17 15 13 12 9 6 4 2 1 0 0 0 0 0 0 0 0 0 0 0 1 1 1 2 2 2 2 2 2 4
43 44 41 40 41 38 35 32 26 17 11 8 7 7 7 6 5 4 3 2 2 2 1 0 0 0 0 0 0 0 0 0 0 0 0 0 0 0 1 1 1 0 1
36 35 31 28 26 25 24 23 17 11 7 4 3 3 3 2 2 1 1 1 1 2 1 0 0 0 0 0 0 0 0 0 0 0 0 0 0 0 1 2 1 0 0
28 28 25 20 17 16 16 17 15 13 10 6 4 2 1 1 1 0 0 0 0 1 1 0 0 0 0 0 0 0 0 0 0 0 0 0 0 0 1 1 1 0 0
20 19 17 14 12 12 13 15 16 16 13 9 5 3 3 3 2 1 1 1 0 0 0 0 0 0 0 0 0 0 0 0 0 0 0 0 0 0 0 0 0 0 0
11 10 9 8 8 8 10 12 12 12 11 9 5 4 3 3 2 2 2 2 1 0 0 0 0 0 0 0 0 0 0 0 0 0 0 0 0 0 0 0 0 0 0
6 5 5 6 6 6 6 6 7 7 8 7 5 4 3 2 1 2 2 1 1 1 1 0 0 0 0 0 0 0 0 0 0 0 0 0 0 0 0 0 0 0 0